[[{"header":{"parameterUnit":"m.s-1","parameterCategory":1,"la1":30.2991,"la2":30.254,"lo1":-89.0895,"lo2":-89.0444,"dy":0.0017,"dx":0.0017,"nx":28,"ny":28,"refTime":"2024-04-17T03:00:00:Z","depth":0,"parameterNumber":2,"parameterNumberName":"U-component_of_WINDS"},"data":[0,0,0,0,0,0,0,0,0,0,0,0,0,0,0,0,0,0,0,0,0,0,0,0,0,0,0,0,0,0,0,0,0,0,0,0,0,0,0,0,0,0,0,0,0,0,0,0,0,0,0,0,0,0,0,0,0,0,-1.3308,-1.3309,0,-1.3435,-1.3437,-1.3438,-1.3485,-1.3484,-1.3484,-1.3484,-1.3619,-1.3623,-1.3627,0,0,0,0,0,0,0,0,0,0,0,0,0,-1.311,-1.3114,-1.3307,-1.3309,-1.3311,-1.3435,-1.3437,-1.3438,-1.3485,-1.3484,-1.3484,-1.3483,-1.3618,-1.3623,-1.3627,0,0,0,0,0,0,0,0,0,0,0,0,0,-1.3213,-1.3115,-1.3307,-1.3349,-1.3354,-1.3434,-1.3437,-1.3439,-1.3485,-1.3484,-1.3484,-1.3483,-1.3616,-1.3622,-1.3628,-1.3678,0,0,-1.3647,-1.3649,0,0,0,0,0,0,0,0,-1.3207,-1.322,-1.3341,-1.3346,-1.3352,-1.3443,-1.3417,-1.3519,-1.3485,-1.3435,-1.3483,-1.3483,-1.3562,-1.3572,-1.3598,-1.3685,-1.3691,-1.3647,-1.3651,-1.3653,-1.3655,0,0,0,0,0,0,0,-1.32,-1.3215,-1.3358,-1.3343,-1.3349,-1.3363,-1.3377,-1.3436,-1.3501,-1.344,-1.3443,-1.3457,-1.3564,-1.3592,-1.3601,-1.3693,-1.3647,-1.3652,-1.3656,-1.3658,-1.3829,-1.383,0,0,0,0,0,0,-1.3185,-1.3208,-1.3354,-1.3362,-1.3276,-1.3367,-1.3382,-1.3415,-1.35,-1.3512,-1.3458,-1.3459,-1.3582,-1.3594,-1.3606,-1.3671,-1.3653,-1.3659,-1.3662,-1.3828,-1.3829,-1.383,0,0,0,0,0,0,-1.318,-1.3197,-1.3349,-1.3286,-1.3307,-1.3371,-1.3407,-1.3417,-1.3445,-1.3514,-1.3526,-1.3473,-1.3582,-1.3598,-1.366,-1.3676,-1.3662,-1.3667,-1.3827,-1.3828,-1.383,-1.3801,0,0,0,0,0,0,-1.3175,-1.3195,-1.3214,-1.3286,-1.331,-1.3399,-1.3408,-1.342,-1.3454,-1.3457,-1.3532,-1.3544,-1.3582,-1.3651,-1.3666,-1.3684,-1.3672,-1.3826,-1.3828,-1.3829,-1.3801,-1.3801,-1.3802,0,0,0,0,0,-1.3167,-1.3202,-1.3214,-1.3232,-1.3334,-1.34,-1.3413,-1.3456,-1.3455,-1.3475,-1.352,-1.3541,-1.3672,-1.3657,-1.3674,-1.3695,-1.3825,-1.3827,-1.3829,-1.3801,-1.3801,-1.3802,0,0,0,0,0,0,-1.3131,-1.3212,-1.3227,-1.3285,-1.3335,-1.3407,-1.3434,-1.3455,-1.3507,-1.3508,-1.356,-1.3576,-1.3635,-1.3671,-1.3653,-1.3749,-1.375,-1.3756,-1.3722,-1.3723,-1.3724,-1.3714,-1.3677,0,0,0,0,0,-1.313,-1.3175,-1.3244,-1.3289,-1.3313,-1.3369,-1.3399,-1.3427,-1.3482,-1.3504,-1.3553,-1.3606,-1.366,-1.3694,-1.3747,-1.3807,-1.3824,-1.383,-1.383,-1.383,-1.3834,-1.3869,-1.3873,-1.3837,-1.3837,-1.3837,0,0,-1.3128,-1.3178,-1.3203,-1.3283,-1.3325,-1.3372,-1.3386,-1.3436,-1.3472,-1.3512,-1.3573,-1.3611,-1.3675,-1.3736,-1.3766,-1.3768,-1.3848,-1.3832,-1.3832,-1.3836,-1.3872,-1.3875,-1.3878,-1.3838,-1.3838,-1.3838,0,0,-1.3148,-1.319,-1.3232,-1.3273,-1.3336,-1.3373,-1.3383,-1.3453,-1.3479,-1.3541,-1.3572,-1.3617,-1.3708,-1.3752,-1.3786,-1.3823,-1.3845,-1.3839,-1.3841,-1.3875,-1.3878,-1.3881,-1.3895,-1.3899,-1.3844,-1.3843,-1.3843,0,-1.3139,-1.3209,-1.3252,-1.3299,-1.3334,-1.3371,-1.3415,-1.3454,-1.3531,-1.3555,-1.3556,-1.3671,-1.3716,-1.3789,-1.3798,-1.3824,-1.3839,-1.3831,-1.3874,-1.3877,-1.388,-1.3894,-1.3899,-1.3842,-1.3842,-1.3843,-1.3843,0,-1.3194,-1.3242,-1.3269,-1.3341,-1.3379,-1.3425,-1.3476,-1.351,-1.3535,-1.3572,-1.3636,-1.3692,-1.3757,-1.3776,-1.3802,-1.3853,-1.3853,-1.3863,-1.3866,-1.3882,-1.3896,-1.3901,-1.3841,-1.3841,-1.3841,-1.3842,0,0,-1.3195,-1.3289,-1.3299,-1.3332,-1.3404,-1.3443,-1.3491,-1.3553,-1.3581,-1.3634,-1.3676,-1.3752,-1.3763,-1.3801,-1.3833,-1.3862,-1.3889,-1.387,-1.3872,-1.3872,-1.395,-1.3941,-1.3946,-1.3904,-1.3905,-1.3906,-1.3944,0,-1.3225,-1.331,-1.335,-1.3418,-1.3464,-1.35,-1.3543,-1.3592,-1.3629,-1.3675,-1.3717,-1.3769,-1.3779,-1.3803,-1.3834,-1.3879,-1.3906,-1.3877,-1.3946,-1.3948,-1.3928,-1.3953,-1.3944,-1.3977,-1.395,-1.3951,-1.3952,0,-1.3271,-1.3321,-1.3393,-1.346,-1.3481,-1.3518,-1.3578,-1.3621,-1.3679,-1.3704,-1.3747,-1.3777,-1.3831,-1.383,-1.3906,-1.3885,-1.3916,-1.3943,-1.3945,-1.3953,-1.395,-1.3962,-1.3989,-1.3994,-1.3961,-1.396,-1.3959,0,-1.3265,-1.3351,-1.3405,-1.3433,-1.3512,-1.3537,-1.3571,-1.3628,-1.3663,-1.3717,-1.374,-1.38,-1.3833,-1.3879,-1.3925,-1.392,-1.3997,-1.3999,-1.402,-1.4019,-1.4035,-1.4033,-1.4066,-1.4054,-1.4054,-1.4054,-1.4054,0,-1.3294,-1.3337,-1.3403,-1.3437,-1.3486,-1.3533,-1.3582,-1.3619,-1.367,-1.3713,-1.3748,-1.3788,-1.3847,-1.3895,-1.3932,-1.3989,-1.4004,-1.4026,-1.4036,-1.4023,-1.402,-1.4044,-1.4043,-1.4055,-1.4055,-1.4055,-1.4055,0,-1.3296,-1.3341,-1.3403,-1.3472,-1.3491,-1.3524,-1.3585,-1.362,-1.3658,-1.3712,-1.3728,-1.3789,-1.3847,-1.3897,-1.3975,-1.4,-1.4059,-1.407,-1.4039,-1.4044,-1.4062,-1.4059,-1.4112,-1.4121,-1.4102,-1.4102,-1.4102,0,-1.3311,-1.3345,-1.3417,-1.3447,-1.348,-1.3529,-1.3564,-1.3612,-1.3648,-1.3716,-1.3743,-1.3804,-1.3854,-1.3946,-1.3999,-1.4058,-1.4072,-1.4086,-1.4081,-1.4067,-1.4072,-1.4069,-1.4073,-1.4086,-1.4086,-1.4086,-1.4086,0,-1.3334,-1.3355,-1.3403,-1.3459,-1.35,-1.3547,-1.3596,-1.3619,-1.3677,-1.3715,-1.3774,-1.3813,-1.3891,-1.3951,-1.4017,-1.4055,-1.408,-1.4087,-1.4095,-1.4082,-1.4063,-1.4074,-1.4039,-1.4085,-1.4085,-1.4085,-1.4085,-1.4085,-1.3344,-1.3375,-1.3431,-1.3483,-1.3524,-1.3569,-1.3605,-1.3647,-1.3696,-1.3762,-1.3788,-1.3849,-1.3907,-1.3997,-1.4035,-1.4084,-1.4089,-1.41,-1.4103,-1.4105,-1.4103,-1.4054,-1.4097,-1.4097,-1.4097,-1.4097,-1.4097,0,-1.3369,-1.3406,-1.3454,-1.352,-1.3561,-1.358,-1.3635,-1.3669,-1.3721,-1.3772,-1.3821,-1.3889,-1.3947,-1.4004,-1.4066,-1.4095,-1.4108,-1.4109,-1.4108,-1.4116,-1.4096,-1.4083,-1.4097,-1.4097,-1.4097,-1.4097,-1.4097,-1.4097,-1.3387,-1.3441,-1.3468,-1.3544,-1.3582,-1.3639,-1.3669,-1.3711,-1.3752,-1.3826,-1.3874,-1.391,-1.3964,-1.403,-1.4085,-1.4101,-1.4122,-1.412,-1.4139,-1.4118,-1.4118,-1.4117,-1.4105,-1.4124,-1.4124,-1.4155,-1.4155,-1.4156]},{"header":{"parameterUnit":"m.s-1","parameterCategory":1,"la1":30.2991,"la2":30.254,"lo1":-89.0895,"lo2":-89.0444,"dy":0.0017,"dx":0.0017,"nx":28,"ny":28,"refTime":"2024-04-17T03:00:00:Z","depth":0,"parameterNumber":3,"parameterNumberName":"V-component_of_WINDS"},"data":[0,0,0,0,0,0,0,0,0,0,0,0,0,0,0,0,0,0,0,0,0,0,0,0,0,0,0,0,0,0,0,0,0,0,0,0,0,0,0,0,0,0,0,0,0,0,0,0,0,0,0,0,0,0,0,0,0,0,4.4487,4.4487,0,4.4523,4.4523,4.4523,4.4494,4.4493,4.4492,4.4491,4.4526,4.4528,4.453,0,0,0,0,0,0,0,0,0,0,0,0,0,4.439,4.4392,4.4486,4.4487,4.4487,4.4522,4.4523,4.4523,4.4494,4.4493,4.4491,4.449,4.4525,4.4527,4.453,0,0,0,0,0,0,0,0,0,0,0,0,0,4.443,4.4393,4.4486,4.4477,4.4477,4.4522,4.4523,4.4524,4.4495,4.4493,4.4491,4.4489,4.4524,4.4527,4.453,4.4586,0,0,4.454,4.4541,0,0,0,0,0,0,0,0,4.4428,4.4433,4.4478,4.4478,4.4477,4.4502,4.4502,4.4545,4.4495,4.4488,4.4491,4.4488,4.4519,4.4523,4.4533,4.4588,4.4589,4.454,4.4542,4.4543,4.4544,0,0,0,0,0,0,0,4.4425,4.4432,4.4501,4.4479,4.4478,4.4471,4.4474,4.451,4.4513,4.4488,4.4486,4.4491,4.4519,4.453,4.4534,4.459,4.454,4.4543,4.4545,4.4546,4.4692,4.4694,0,0,0,0,0,0,4.4423,4.443,4.45,4.4502,4.4448,4.4474,4.4478,4.4496,4.4513,4.4514,4.4493,4.449,4.4526,4.453,4.4535,4.4602,4.4543,4.4546,4.4548,4.469,4.4692,4.4694,0,0,0,0,0,0,4.4421,4.443,4.4498,4.4465,4.4473,4.4477,4.4498,4.4498,4.4509,4.4516,4.4516,4.4504,4.4525,4.4531,4.4574,4.4603,4.4548,4.455,4.4688,4.4691,4.4693,4.4736,0,0,0,0,0,0,4.4419,4.4429,4.4451,4.4466,4.4475,4.4537,4.45,4.45,4.4515,4.4511,4.4527,4.4528,4.4524,4.4569,4.4577,4.4606,4.4553,4.4685,4.4689,4.4692,4.4732,4.474,4.4747,0,0,0,0,0,4.4416,4.4462,4.4453,4.4461,4.4503,4.4539,4.4544,4.4539,4.4518,4.4539,4.4543,4.4527,4.4598,4.4574,4.4582,4.4613,4.4683,4.4688,4.4692,4.4728,4.4738,4.4747,0,0,0,0,0,0,4.445,4.4463,4.4454,4.4506,4.4522,4.4534,4.4561,4.4549,4.4571,4.4567,4.4559,4.4562,4.4608,4.4614,4.4587,4.4667,4.4637,4.4643,4.4662,4.4671,4.4679,4.4676,4.4555,0,0,0,0,0,4.4463,4.4492,4.4502,4.4547,4.4556,4.4557,4.4573,4.4567,4.4583,4.4589,4.4597,4.4612,4.4637,4.4655,4.4678,4.4732,4.4735,4.4757,4.4765,4.4771,4.4777,4.4805,4.4815,4.4709,4.4709,4.4709,0,0,4.4492,4.4503,4.4522,4.4554,4.4566,4.4595,4.4563,4.4595,4.4617,4.4594,4.4636,4.4641,4.4658,4.4707,4.4728,4.4713,4.4806,4.4776,4.4781,4.4784,4.4811,4.4821,4.483,4.4712,4.4712,4.4711,0,0,4.4559,4.457,4.4609,4.4621,4.4639,4.464,4.4649,4.4663,4.4667,4.4708,4.4691,4.4716,4.4761,4.4773,4.4785,4.4857,4.4842,4.4864,4.4904,4.4932,4.494,4.4947,4.4973,4.4982,4.487,4.487,4.487,0,4.4592,4.4637,4.463,4.4664,4.4679,4.466,4.4699,4.4711,4.4735,4.4746,4.4728,4.4784,4.4793,4.4845,4.4862,4.4872,4.4882,4.4863,4.494,4.4947,4.4954,4.4978,4.4987,4.4873,4.4872,4.4872,4.4872,0,4.4676,4.4707,4.4736,4.4762,4.4779,4.4816,4.4814,4.4833,4.4826,4.4828,4.487,4.4881,4.4907,4.4918,4.4911,4.4969,4.4959,4.4941,4.491,4.4966,4.4989,4.4998,4.4876,4.4876,4.4875,4.4874,0,0,4.4767,4.4788,4.4799,4.481,4.4828,4.4851,4.4886,4.4912,4.4928,4.4945,4.4974,4.5012,4.4995,4.5009,4.5003,4.5028,4.5084,4.5007,4.5007,4.5021,4.5147,4.5161,4.5172,4.5074,4.5076,4.5077,4.5146,0,4.4836,4.4897,4.4892,4.495,4.4979,4.496,4.4991,4.5005,4.5007,4.5031,4.5033,4.5061,4.5036,4.5045,4.5068,4.5072,4.5109,4.5067,4.5101,4.5102,4.5098,4.5184,4.5199,4.5263,4.5155,4.5156,4.5157,0,4.4924,4.4945,4.5006,4.502,4.5031,4.5059,4.5082,4.5105,4.512,4.512,4.5135,4.5125,4.5159,4.5127,4.5175,4.5146,4.5159,4.5163,4.5165,4.5169,4.5134,4.519,4.5284,4.5294,4.5171,4.517,4.5169,0,4.4985,4.5028,4.507,4.508,4.5096,4.5116,4.5124,4.5137,4.5153,4.5172,4.5182,4.5205,4.5218,4.5236,4.5232,4.5209,4.528,4.5248,4.5281,4.5281,4.5298,4.5297,4.5395,4.5305,4.5305,4.5305,4.5305,0,4.5062,4.51,4.5098,4.5124,4.5165,4.5159,4.52,4.5205,4.5217,4.5243,4.5228,4.5253,4.5246,4.527,4.5267,4.5306,4.5312,4.5313,4.5312,4.5315,4.5315,4.5324,4.532,4.5308,4.5307,4.5307,4.5306,0,4.5137,4.5137,4.5182,4.5194,4.5198,4.5228,4.5238,4.5262,4.5263,4.5296,4.5304,4.5305,4.5333,4.533,4.5361,4.5359,4.5408,4.5401,4.5404,4.5402,4.5436,4.5433,4.5544,4.5558,4.5459,4.546,4.546,0,4.5187,4.5216,4.5231,4.5248,4.5257,4.5284,4.53,4.5294,4.5311,4.533,4.5352,4.5378,4.5399,4.5443,4.5447,4.547,4.5464,4.5502,4.5468,4.547,4.5465,4.5464,4.5467,4.5509,4.551,4.5511,4.5511,0,4.5276,4.5274,4.5298,4.5322,4.5341,4.5359,4.5376,4.539,4.5386,4.5405,4.5434,4.545,4.5481,4.5508,4.553,4.5537,4.5524,4.5522,4.5531,4.5535,4.5535,4.5535,4.5422,4.552,4.5519,4.5518,4.5518,4.5517,4.5341,4.5365,4.538,4.5407,4.5418,4.5434,4.5457,4.5461,4.5485,4.551,4.5505,4.5537,4.555,4.5578,4.5588,4.5612,4.5598,4.5611,4.5615,4.5618,4.5622,4.553,4.5616,4.5615,4.5615,4.5615,4.5615,0,4.5429,4.5437,4.5462,4.5485,4.5506,4.5492,4.5509,4.5527,4.5556,4.5569,4.559,4.5622,4.5648,4.5653,4.5677,4.5695,4.569,4.5702,4.5701,4.5702,4.5633,4.5623,4.5706,4.5706,4.5706,4.5706,4.5706,4.5706,4.5478,4.5519,4.5519,4.5565,4.5572,4.5604,4.5615,4.5629,4.564,4.5677,4.5698,4.5701,4.5711,4.5735,4.5758,4.5758,4.5768,4.5783,4.5781,4.5716,4.5707,4.5699,4.5689,4.5785,4.5785,4.5849,4.5849,4.585]}]]